Home   Weather   36°57'N, 86°25'W   Past weeks
Flag for USA

Past Weather in 36°57'N, 86°25'W, USA — Yesterday and Last 2 Weeks

Now
73 °F

Clear.


Feels Like: 77 °F
Forecast: 77 / 56 °F
Wind: 6 mph from Southwest

Location: Glasgow Municipal Airport

Current Time: Apr 23, 2019 at 7:44:01 pm

Latest Report: Apr 23, 2019 at 6:55 pm


Visibility: 10 mi

Pressure: 29.99 "Hg

Humidity: 45%

Dew Point: 51 °F

Location of 36°57'N, 86°25'WLocation

Past Weather in 36°57'N, 86°25'W — Graph

°F

36°57'N, 86°25'W Temperature Yesterday

Maximum temperature yesterday: 81 °F (at 4:15 pm)
Minimum temperature yesterday: 40 °F (at 6:15 am)
Average temperature yesterday: 62 °F

High & Low Weather Summary for the Past Weeks

 TemperatureHumidityPressure
High84 °F (Apr 11, 2:15 pm)100% (Apr 20, 7:55 am)30.23 "Hg (Apr 20, 7:55 am)
Low35 °F (Apr 15, 6:35 am)23% (Apr 10, 2:55 pm)29.42 "Hg (Apr 14, 1:35 pm)
Average59 °F67%29.90 "Hg
* Reported Apr 8 6:15 pm — Apr 23 6:35 pm, 36°57'N, 86°25'W. Weather by CustomWeather, © 2019

Note: Actual official high and low records may vary slightly from our data, if they occured in-between our weather recording intervals... More about our weather records

Advertising

36°57'N, 86°25'W Weather History for the Previous 24 Hours

Scroll right to see more
 ConditionsComfort  
Time TempWeatherWind HumidityBarometerVisibility
6:35 pm
Tue, Apr 23
74 °FClear.8 mph44%29.99 "Hg10 mi
6:15 pm75 °FSunny.9 mph41%30.00 "Hg10 mi
5:55 pm78 °FSunny.15 mph38%30.00 "Hg10 mi
5:35 pm77 °FSunny.10 mph37%30.00 "Hg10 mi
5:15 pm78 °FSunny.17 mph36%30.00 "Hg10 mi
4:55 pm79 °FSunny.12 mph37%30.00 "Hg10 mi
4:15 pm79 °FSunny.9 mph36%29.99 "Hg10 mi
3:55 pm81 °FSunny.14 mph35%30.00 "Hg10 mi
3:35 pm81 °FSunny.8 mph37%30.00 "Hg10 mi
3:15 pm80 °FSunny.9 mph36%30.01 "Hg10 mi
2:55 pm80 °FSunny.13 mph38%30.02 "Hg10 mi
2:35 pm80 °FSunny.10 mph37%30.02 "Hg10 mi
2:15 pm80 °FSunny.15 mph39%30.02 "Hg10 mi
1:55 pm79 °FSunny.13 mph41%30.03 "Hg10 mi
1:35 pm80 °FSunny.16 mph39%30.04 "Hg10 mi
12:55 pm79 °FSunny.16 mph40%30.05 "Hg10 mi
12:35 pm78 °FSunny.14 mph41%30.06 "Hg10 mi
12:15 pm78 °FSunny.10 mph41%30.06 "Hg10 mi
11:55 am77 °FSunny.16 mph42%30.08 "Hg10 mi
11:35 am77 °FSunny.14 mph41%30.08 "Hg10 mi
11:15 am76 °FSunny.13 mph42%30.08 "Hg10 mi
10:55 am75 °FSunny.15 mph43%30.08 "Hg10 mi
10:35 am74 °FSunny.12 mph45%30.08 "Hg10 mi
10:15 am72 °FSunny.10 mph49%30.09 "Hg10 mi
9:55 am70 °FSunny.10 mph52%30.09 "Hg10 mi
9:35 am68 °FSunny.7 mph56%30.08 "Hg10 mi
9:15 am66 °FSunny.8 mph60%30.08 "Hg10 mi
8:35 am62 °FSunny.6 mph68%30.08 "Hg10 mi
8:15 am61 °FSunny.3 mph70%30.08 "Hg10 mi
7:55 am59 °FSunny.No wind75%30.08 "Hg10 mi
7:35 am57 °FSunny.No wind81%30.08 "Hg10 mi
6:55 am57 °FSunny.No wind74%30.07 "Hg10 mi
6:35 am54 °FSunny.No wind81%30.07 "Hg10 mi
6:15 am53 °FSunny.No wind83%30.06 "Hg10 mi
5:55 am54 °FSunny.No wind79%30.07 "Hg10 mi
5:35 am53 °FSunny.No wind84%30.06 "Hg10 mi
5:15 am50 °FSunny.No wind89%30.06 "Hg10 mi
4:55 am51 °FClear.No wind88%30.07 "Hg10 mi
4:35 am52 °FClear.No wind87%30.07 "Hg10 mi
3:55 am52 °FClear.No wind85%30.07 "Hg10 mi
3:35 am53 °FClear.No wind81%30.07 "Hg10 mi
3:15 am54 °FClear.No wind79%30.06 "Hg10 mi
2:55 am56 °FClear.No wind75%30.06 "Hg10 mi
2:35 am58 °FClear.No wind68%30.06 "Hg10 mi
1:55 am57 °FClear.No wind71%30.07 "Hg10 mi
1:35 am58 °FClear.No wind69%30.08 "Hg10 mi
1:15 am57 °FClear.No wind70%30.08 "Hg10 mi
12:55 am57 °FClear.3 mph71%30.08 "Hg10 mi
12:35 am61 °FClear.No wind62%30.08 "Hg10 mi
12:15 am60 °FClear.No wind65%30.08 "Hg10 mi
11:55 pm
Mon, Apr 22
58 °FClear.No wind72%30.08 "Hg10 mi
11:35 pm61 °FClear.No wind64%30.08 "Hg10 mi
11:15 pm62 °FClear.No wind61%30.08 "Hg10 mi
10:55 pm62 °FClear.No wind61%30.09 "Hg10 mi
10:35 pm61 °FClear.No wind64%30.08 "Hg10 mi
10:15 pm59 °FClear.No wind71%30.09 "Hg10 mi
9:55 pm60 °FClear.No wind71%30.08 "Hg10 mi
9:35 pm61 °FClear.No wind67%30.09 "Hg10 mi
9:15 pm60 °FClear.No wind68%30.09 "Hg10 mi
8:55 pm62 °FClear.No wind66%30.09 "Hg10 mi
8:35 pm63 °FClear.No wind60%30.09 "Hg10 mi
8:15 pm66 °FClear.No wind53%30.09 "Hg10 mi
7:55 pm67 °FClear.No wind53%30.08 "Hg10 mi
7:35 pm71 °FClear.No wind42%30.09 "Hg10 mi
Weather by CustomWeather, © 2019

See weather overview